Retour au catalogue

TIANMU-1 12

ActifMétéoSSO
NORAD 58646·PAYLOAD·🇨🇳 China

Lancé Dec 25, 2023 depuis Jiuquan Satellite Launch Center

Loading…

Prochains Passages (prochaines 24 heures)

TLE

FraisSource: Space-Track

Époque: Sep 14, 2026, 22:08 UTC

1 58646U 23205B   26257.92267895  .00004935  00000-0  18629-3 0  9991
2 58646  97.3419 277.8212 0008540  43.2936 316.8973 15.27446752151206

Suivez TIANMU-1 12 en temps réel avec AllMySat

Download on the App Store